IR1ZYZ-3 Weather Reports


Display with metric or nautical units.
time (UTC)temp
F
wind
direction
speed
MPH
gust
MPH
rain 1hr
in
rain 24hr
in
rain mn
in
humidity
%
barometer
mb
20260507112911 80 0.0 0.0 0.00 0.00 0.00 66 1013.4
20260507111905 78 0.0 0.0 0.00 0.00 0.00 70 1013.8
20260507110900 77 0.0 0.0 0.00 0.00 0.00 73 1013.9
20260507110859 77 0.0 0.0 0.00 0.00 0.00 73 1013.9
20260507105854 77 0.0 0.0 0.00 0.00 0.00 70 1013.8
20260507104849 76 0.0 0.0 0.00 0.00 0.00 74 1013.9
20260507103844 76 0.0 0.0 0.00 0.00 0.00 75 1014.1
20260507102839 73 0.0 0.0 0.00 0.00 0.00 77 1014.1
20260507101833 73 0.0 0.0 0.00 0.00 0.00 85 1014.1
20260507100828 72 0.0 0.0 0.00 0.00 0.00 84 1014.2
20260507095823 71 0.0 0.0 0.00 0.00 0.00 84 1014.4
20260507093812 70 0.0 0.0 0.00 0.00 0.00 99 1014.3
20260507092807 70 0.0 0.0 0.00 0.00 0.00 94 1014.2
20260507091802 69 0.0 0.0 0.00 0.00 0.00 98 1014.3
20260507090757 69 0.0 0.0 0.00 0.00 0.00 10 1014.2
20260507085752 67 0.0 0.0 0.00 0.00 0.00 10 1014.2
20260507084747 68 0.0 0.0 0.00 0.00 0.00 10 1014.0
20260507083742 67 0.0 0.0 0.00 0.00 0.00 10 1013.9
20260507082737 66 0.0 0.0 0.00 0.00 0.00 10 1013.8
20260507081731 65 0.0 0.0 0.00 0.00 0.00 10 1013.9
20260507080726 64 0.0 0.0 0.00 0.00 0.00 10 1013.9
20260507075721 63 0.0 0.0 0.00 0.00 0.00 10 1014.0
20260507074716 62 0.0 0.0 0.00 0.00 0.00 10 1014.1
20260507073710 61 0.0 0.0 0.00 0.00 0.00 10 1014.1
20260507072705 60 0.0 0.0 0.00 0.00 0.00 10 1014.2
20260507070654 58 0.0 0.0 0.00 0.00 0.00 10 1014.2
20260507065649 57 0.0 0.0 0.00 0.00 0.00 10 1014.1
20260507064644 56 0.0 0.0 0.00 0.00 0.00 10 1014.1
20260507063639 55 0.0 0.0 0.00 0.00 0.00 10 1014.1
20260507062633 55 0.0 0.0 0.00 0.00 0.00 10 1014.0
20260507061628 54 0.0 0.0 0.00 0.00 0.00 10 1014.0
20260507060623 54 0.0 0.0 0.00 0.00 0.00 10 1013.9
20260507055617 53 0.0 0.0 0.00 0.00 0.00 10 1013.9
20260507054612 52 0.0 0.0 0.00 0.00 0.00 10 1013.7
20260507053607 51 0.0 0.0 0.00 0.00 0.00 10 1013.8
20260507052601 51 0.0 0.0 0.00 0.00 0.00 10 1013.6
20260507051556 51 0.0 0.0 0.00 0.00 0.00 10 1013.5
20260507050551 51 0.0 0.0 0.00 0.00 0.00 10 1013.4
20260507045546 50 0.0 0.0 0.00 0.00 0.00 10 1013.3
20260507044541 50 0.0 0.0 0.00 0.00 0.00 10 1013.3
20260507043535 49 0.0 0.0 0.00 0.00 0.00 10 1013.3
20260507042530 49 0.0 0.0 0.00 0.00 0.00 10 1013.2
20260507041525 50 0.0 0.0 0.00 0.00 0.00 10 1013.3
20260507040519 49 0.0 0.0 0.00 0.00 0.00 10 1013.3
20260507035514 50 0.0 0.0 0.00 0.00 0.00 10 1013.2
20260507034509 49 0.0 0.0 0.00 0.00 0.00 10 1013.1
20260507033504 50 0.0 0.0 0.00 0.00 0.00 10 1013.0
20260507032459 50 0.0 0.0 0.00 0.00 0.00 10 1012.8
20260507031453 50 0.0 0.0 0.00 0.00 0.00 10 1012.8
20260507030448 52 0.0 0.0 0.00 0.00 0.00 10 1012.9
20260507025443 50 0.0 0.0 0.00 0.00 0.00 10 1012.9
20260507024438 50 0.0 0.0 0.00 0.00 0.00 10 1012.9
20260507023432 50 0.0 0.0 0.00 0.00 0.00 10 1012.8
20260507022427 50 0.0 0.0 0.00 0.00 0.00 10 1012.7
20260507021422 50 0.0 0.0 0.00 0.00 0.00 10 1012.8
20260507020416 50 0.0 0.0 0.00 0.00 0.00 10 1012.5
20260507015411 51 0.0 0.0 0.00 0.00 0.00 10 1012.4
20260507014407 51 0.0 0.0 0.00 0.00 0.00 10 1012.4
20260507013402 51 0.0 0.0 0.00 0.00 0.00 10 1012.2
20260507012356 51 0.0 0.0 0.00 0.00 0.00 10 1012.2
20260507011350 51 0.0 0.0 0.00 0.00 0.00 10 1012.1
20260507010345 52 0.0 0.0 0.00 0.00 0.00 10 1012.3
20260507005340 52 0.0 0.0 0.00 0.00 0.00 10 1012.4
20260507004335 52 0.0 0.0 0.00 0.00 0.00 10 1012.4
20260507003330 52 0.0 0.0 0.00 0.00 0.00 10 1012.3
20260507002323 52 0.0 0.0 0.00 0.00 0.00 10 1012.3
20260507001318 53 0.0 0.0 0.00 0.00 0.00 10 1012.2
20260507000314 54 0.0 0.0 0.00 0.00 0.00 10 1012.1
20260506235307 54 0.0 0.0 0.00 0.00 0.00 10 1012.0
20260506234300 53 0.0 0.0 0.00 0.00 0.00 10 1012.2
20260506233255 53 0.0 0.0 0.00 0.00 0.00 10 1012.2
20260506232248 53 0.0 0.0 0.00 0.00 0.00 10 1012.3
20260506231243 55 0.0 0.0 0.00 0.00 0.00 10 1012.3
20260506230237 55 0.0 0.0 0.00 0.00 0.00 10 1012.3
20260506225232 55 0.0 0.0 0.00 0.00 0.00 10 1012.3
20260506224226 55 0.0 0.0 0.00 0.00 0.00 10 1012.2
20260506223219 55 0.0 0.0 0.00 0.00 0.00 10 1012.2
20260506222214 54 0.0 0.0 0.00 0.00 0.00 10 1012.3
20260506221208 55 0.0 0.0 0.00 0.00 0.00 10 1012.2
20260506220202 55 0.0 0.0 0.00 0.00 0.00 10 1012.2
20260506215156 55 0.0 0.0 0.00 0.00 0.00 10 1012.1
20260506214151 55 0.0 0.0 0.00 0.00 0.00 10 1012.1
20260506213145 55 0.0 0.0 0.00 0.00 0.00 10 1012.1
20260506212140 55 0.0 0.0 0.00 0.00 0.00 10 1012.1
20260506211134 55 0.0 0.0 0.00 0.00 0.00 10 1012.2
20260506210129 55 0.0 0.0 0.00 0.00 0.00 10 1012.2
20260506205124 55 0.0 0.0 0.00 0.00 0.00 10 1012.1
20260506204119 55 0.0 0.0 0.00 0.00 0.00 10 1012.0
20260506203113 56 0.0 0.0 0.00 0.00 0.00 10 1011.9
20260506202109 57 0.0 0.0 0.00 0.00 0.00 10 1011.8
20260506201104 57 0.0 0.0 0.00 0.00 0.00 10 1011.6
20260506200058 57 0.0 0.0 0.00 0.00 0.00 10 1011.4
20260506195053 57 0.0 0.0 0.00 0.00 0.00 10 1011.4
20260506194049 57 0.0 0.0 0.00 0.00 0.00 10 1011.2
20260506193044 57 0.0 0.0 0.00 0.00 0.00 10 1011.1
20260506192039 57 0.0 0.0 0.00 0.00 0.00 10 1010.9
20260506191033 57 0.0 0.0 0.00 0.00 0.00 10 1010.7
20260506190028 57 0.0 0.0 0.00 0.00 0.00 10 1010.4
20260506185023 58 0.0 0.0 0.00 0.00 0.00 10 1010.2
20260506184018 58 0.0 0.0 0.00 0.00 0.00 10 1010.0
20260506183012 58 0.0 0.0 0.00 0.00 0.00 10 1010.0
20260506182008 58 0.0 0.0 0.00 0.00 0.00 10 1010.0
20260506181003 58 0.0 0.0 0.00 0.00 0.00 10 1009.9
20260506175957 59 0.0 0.0 0.00 0.00 0.00 10 1009.8
20260506174952 59 0.0 0.0 0.00 0.00 0.00 10 1009.6
20260506173948 60 0.0 0.0 0.00 0.00 0.00 10 1009.6
20260506172943 60 0.0 0.0 0.00 0.00 0.00 10 1009.5
20260506171937 60 0.0 0.0 0.00 0.00 0.00 10 1009.5
20260506170932 61 0.0 0.0 0.00 0.00 0.00 10 1009.5
20260506165928 61 0.0 0.0 0.00 0.00 0.00 10 1009.4
20260506164923 63 0.0 0.0 0.00 0.00 0.00 89 1009.3
20260506163917 66 0.0 0.0 0.00 0.00 0.00 80 1009.1
20260506162912 66 0.0 0.0 0.00 0.00 0.00 76 1009.2
20260506161907 67 0.0 0.0 0.00 0.00 0.00 76 1009.0
20260506160902 68 0.0 0.0 0.00 0.00 0.00 69 1009.1
20260506160038 69 0.0 0.0 0.00 0.00 0.00 65 1009.0
20260506155857 69 0.0 0.0 0.00 0.00 0.00 65 1009.0
20260506154852 70 0.0 0.0 0.00 0.00 0.00 65 1008.9
20260506153846 70 0.0 0.0 0.00 0.00 0.00 63 1008.8
20260506151835 70 0.0 0.0 0.00 0.00 0.00 67 1008.8
20260506150830 69 0.0 0.0 0.00 0.00 0.00 73 1009.0
20260506145825 70 0.0 0.0 0.00 0.00 0.00 72 1008.9
20260506144821 69 0.0 0.0 0.00 0.00 0.00 70 1008.9
20260506143815 69 0.0 0.0 0.00 0.00 0.00 72 1008.8
20260506142810 70 0.0 0.0 0.00 0.00 0.00 74 1009.1
20260506141805 70 0.0 0.0 0.00 0.00 0.00 71 1009.0
20260506140800 70 0.0 0.0 0.00 0.00 0.00 72 1009.0
20260506135756 70 0.0 0.0 0.00 0.00 0.00 71 1009.1
20260506134750 70 0.0 0.0 0.00 0.00 0.00 68 1009.1
20260506133745 71 0.0 0.0 0.00 0.00 0.00 68 1009.3
20260506132740 72 0.0 0.0 0.00 0.00 0.00 70 1009.3
20260506131734 71 0.0 0.0 0.00 0.00 0.00 69 1009.3
20260506130729 71 0.0 0.0 0.00 0.00 0.00 71 1009.6
20260506125723 71 0.0 0.0 0.00 0.00 0.00 72 1009.5
20260506124718 70 0.0 0.0 0.00 0.00 0.00 76 1009.6
20260506123713 67 0.0 0.0 0.00 0.00 0.00 84 1009.8
20260506122708 71 0.0 0.0 0.00 0.00 0.00 83 1009.8
20260506121703 65 0.0 0.0 0.00 0.00 0.00 10 1010.0
20260506120658 67 0.0 0.0 0.00 0.00 0.00 88 1009.9
20260506115652 68 0.0 0.0 0.00 0.00 0.00 90 1009.8
20260506114648 66 0.0 0.0 0.00 0.00 0.00 95 1009.9
20260506113643 68 0.0 0.0 0.00 0.00 0.00 84 1009.9